Showing default

COSMOS 192, 3047

Orbit data source: Space-Track

COSMOS 192, 3047 is a payload satellite owned by OKB-10 (CIS) in LEO that was launched on Thu, 23 Nov 1967 UTC via a KOSMOS 11K65M launch vehicle from the Plesetsk Missile And Space Complex (PKMTR). Payload-class satellites include a variety of spacecraft equipped with specific instruments for various scientific and technological missions. These include communications satellites like Starlink; space stations such as the ISS; scientific satellites like the Hubble; Earth observation satellites from companies like Planet Labs, Umbra, and HawkEye 360; GPS; miniature CubeSats for education and research; and military/defense satellites.

Loading next visibility...
Identifier
3047, 1967-116A
Orbit
LEO
Country
Flag of CISCIS
Related business
Manufacturer
OKB-10
Mission
Spacecraft
Bus & Motor
KAUR-1 11F617, Unknown motor
Mass
775 kg wet, 775 kg dry
Launch date (UTC)
1967-11-23 (58 years ago)
Launch vehicle
KOSMOS 11K65M
Launch site
Plesetsk Missile And Space Complex (PKMTR)
Object type
Payload
Rocket body
Debris
Shape & HBR
Unknown
Radar Cross Section
Large (>1 m²)

Expand to show TLE details & history
Last TLE update: 8 hours ago

TLE from 8 hours ago
0 COSMOS 192
1 03047U 67116A   25293.24697924  .00000693  00000-0  15931-3 0  9999
2 03047  74.0095 112.3276 0008651 331.1000  28.9684 14.57374539 63678
Epoch: 2025-10-20T05:55Z
TLE epoch observation values (Epoch: 2025-10-20T05:55:39.006Z)
Latitude
Longitude
-5.53696°
Altitude
698.941 km
Speed
7.51 km/s
True Right ascension
07h 29m 18s
True Declination
0° 00' 00"
Sunlit
Object was in daylight at epoch
Visualization orbit readout
Latitude
Unknown
Longitude
Unknown
Altitude
Unknown
Speed
Unknown
Apparent Right ascension
Unknown
Apparent Declination
Unknown
Sunlit
N/A
Visualization observer readout
Local Sidereal Time
09:02:47
Azimuth
Unknown
Elevation
Unknown
Doppler factor
Unknown
Orbital elements
Apogee altitude
705.389 km
Perigee altitude
693.144 km
Semi-major axis
7,077.404 km
Eccentricity
0.00087
Inclination
74.0095°
RAAN
112.3276°
Arg. of periapsis
331.1°
True anomaly
29.01646°
Mean anomaly
28.9684°
Eccentric anomaly
28.99242°
Mean motion
3.64529 °/min
Orbital period
98.76 mins
BSTAR
0.00015931
Loading maneuver chart data...
Computing Atmospheric mass density...
Loading historical data...
Loading historical data...
Loading historical data...
Loading historical data...
Loading historical data...
Loading historical data...
Loading historical data...

Documentation

Showing up to 5 results
|